Angleton, TX

3:22 AM CST on December 07, 2019 (GMT -0600)
Brazoria County

Weather History for KLBX - July, 2019

Change the Weather History Date:

Friday, July 19, 2019

  Actual Average Record
Temperature  
Mean Temperature 86 °F -  
Max Temperature 93 °F 89 °F 97 °F (2000)
Min Temperature 78 °F 72 °F 70 °F (2013)
Cooling Degree Days 20    
Growing Degree Days 36 (Base 50)    
Moisture  
Dew Point 75 °F    
Average Humidity 74    
Maximum Humidity 90    
Minimum Humidity 56    
Precipitation  
Precipitation 0.00 in - - ()
Sea Level Pressure  
Sea Level Pressure 30.00 in    
Wind  
Wind Speed 7 mph (South)    
Max Wind Speed 15 mph    
Max Gust Speed 22 mph    
Visibility 10 miles    
Events      
Averages and records for this station are not official NWS values.
T = Trace of Precipitation, MM = Missing Value Source: NWS Daily Summary

Daily Weather History Graph

Daily Weather History Graph

Search for Another Location

Airport or City:

Astronomy

Jul. 19, 2019 Rise Set
Actual Time 6:34 AM CDT 8:21 PM CDT
Civil Twilight 6:08 AM CDT 8:47 PM CDT
Nautical Twilight 5:36 AM CDT 9:19 PM CDT
Astronomical Twilight 5:03 AM CDT 9:52 PM CDT
Moon 10:29 PM CDT (7/19) 8:55 AM CDT (7/19)
Length of Visible Light 14h 38m
Length of Day
13h 46m
Waning Gibbous, 93% of the Moon is Illuminated
Jul 19
Waning Gibbous
Jul 24
Last Quarter
Jul 31
New
Aug 7
First Quarter
Aug 15
Full

Hourly Weather History & Observations

Time (CDT) Temp. Heat Index Dew Point Humidity Pressure Visibility Wind Dir Wind Speed Gust Speed Precip Events Conditions
12:53 AM 79.0 °F - 75.0 °F 88% 30.00 in 10.0 mi Calm Calm - N/A   Partly Cloudy
1:53 AM 78.1 °F - 75.0 °F 90% 29.99 in 10.0 mi South 4.6 mph - N/A   Clear
2:53 AM 78.1 °F - 73.9 °F 87% 29.99 in 10.0 mi Calm Calm - N/A   Clear
3:53 AM 78.1 °F - 75.0 °F 90% 29.97 in 10.0 mi South 4.6 mph - N/A   Clear
4:53 AM 78.1 °F - 75.0 °F 90% 29.97 in 10.0 mi South 4.6 mph - N/A   Clear
5:53 AM 79.0 °F - 75.0 °F 88% 29.98 in 10.0 mi SSE 5.8 mph - N/A   Clear
6:53 AM 78.1 °F - 73.9 °F 87% 29.99 in 10.0 mi Calm Calm - N/A   Clear
7:53 AM 82.0 °F 90.2 °F 77.0 °F 85% 30.00 in 10.0 mi South 8.1 mph - N/A   Clear
8:53 AM 86.0 °F 96.0 °F 75.9 °F 72% 30.01 in 10.0 mi South 13.8 mph - N/A   Partly Cloudy
9:16 AM 87.1 °F 98.8 °F 77.0 °F 72% 30.02 in 10.0 mi South 10.4 mph - N/A   Mostly Cloudy
9:46 AM 87.1 °F 96.3 °F 75.0 °F 67% 30.02 in 10.0 mi South 12.7 mph - N/A   Scattered Clouds
9:53 AM 88.0 °F 97.5 °F 75.0 °F 65% 30.02 in 10.0 mi South 12.7 mph - N/A   Scattered Clouds
10:53 AM 90.0 °F 101.3 °F 75.9 °F 63% 30.04 in 10.0 mi South 12.7 mph - N/A   Scattered Clouds
11:53 AM 91.0 °F 104.2 °F 77.0 °F 63% 30.04 in 10.0 mi South 13.8 mph - N/A   Mostly Cloudy
12:53 PM 91.0 °F 101.6 °F 75.0 °F 59% 30.04 in 10.0 mi South 13.8 mph - N/A   Mostly Cloudy
1:53 PM 91.9 °F 103.2 °F 75.0 °F 58% 30.03 in 10.0 mi SSE 13.8 mph - N/A   Partly Cloudy
2:53 PM 93.0 °F 104.6 °F 75.0 °F 56% 30.02 in 10.0 mi South 11.5 mph 21.9 mph N/A   Scattered Clouds
3:53 PM 91.9 °F 103.2 °F 75.0 °F 58% 30.00 in 10.0 mi SSE 15.0 mph - N/A   Partly Cloudy
4:53 PM 91.0 °F 102.9 °F 75.9 °F 61% 29.99 in 10.0 mi South 15.0 mph - N/A   Partly Cloudy
5:53 PM 90.0 °F 101.3 °F 75.9 °F 63% 29.97 in 10.0 mi SSE 15.0 mph - N/A   Mostly Cloudy
6:53 PM 87.1 °F 96.3 °F 75.0 °F 67% 29.97 in 10.0 mi South 15.0 mph - N/A   Clear
7:53 PM 84.9 °F 94.1 °F 75.9 °F 74% 29.97 in 10.0 mi South 15.0 mph - N/A   Clear
8:53 PM 82.9 °F 90.8 °F 75.9 °F 79% 29.97 in 10.0 mi South 11.5 mph - N/A   Clear
9:53 PM 82.0 °F 89.4 °F 75.9 °F 82% 29.98 in 10.0 mi South 10.4 mph - N/A   Clear
10:53 PM 81.0 °F 87.3 °F 75.9 °F 85% 29.99 in 10.0 mi South 9.2 mph - N/A   Clear
11:53 PM 81.0 °F 87.3 °F 75.9 °F 85% 29.99 in 10.0 mi South 8.1 mph - N/A   Clear